Temp
67 66 65 64 63 62 61 61 62 62 62 63 64 63 62 61 61 59 58 58 57 56
68 67 64 62 62 62 60 62 61 62 62 63 65 64 61 61 60 59 59 58 57 56
66 66 64 62 60 59 59 60 61 61 62 63 64 62 61 61 61 60 59 59 57 55
63 63 62 60 59 59 59 60 61 61 61 61 60 59 58 59 58 57 56 57 57 56
62 61 60 59 59 59 59 60 60 61 61 61 59 56 55 54 54 54 53 55 55 55
60 60 59 58 58 59 59 59 61 60 55 54 52 52 52 52 52 51 52 52 52 53
60 60 60 59 59 59 59 58 57 54 52 49 48 48 49 50 48 48 50 50 51 53
59 60 60 59 58 57 57 57 56 51 49 47 47 47 45 44 44 44 46 49 53 54
61 59 55 55 55 55 54 53 52 49 46 43 45 44 46 45 41 44 46 48 50 54
58 56 55 55 54 51 50 51 50 46 43 40 40 43 43 45 42 45 50 50 50 53
57 55 54 53 50 50 53 53 50 48 45 41 42 43 42 44 43 43 44 45 47 46
55 53 52 50 49 50 52 51 50 50 45 38 37 42 42 41 40 44 44 47 47 47
54 52 49 48 48 49 48 47 48 46 44 42 36 42 42 40 40 41 41 44 47 46
53 50 48 47 47 46 47 46 44 44 43 40 38 38 42 42 38 41 41 42 44 46
MSLP
1009.34 1010.09 1010.91 1011.39 1012.01 1012.77 1013.26 1013.78 1014.10 1014.22 1014.34 1014.17 1014.02 1014.50 1014.82 1015.13 1015.07 1015.45 1015.64 1015.56 1015.63 1015.80
1009.19 1009.80 1010.89 1011.74 1012.42 1013.12 1013.84 1014.24 1014.35 1014.38 1014.38 1014.46 1014.66 1014.64 1015.12 1015.16 1015.65 1015.64 1015.63 1015.65 1015.71 1015.83
1010.09 1010.74 1011.29 1011.95 1012.69 1013.63 1014.02 1014.12 1014.30 1014.36 1014.65 1014.68 1014.93 1015.23 1015.68 1015.57 1015.70 1015.70 1015.99 1016.00 1016.05 1016.05
1010.57 1011.01 1011.76 1012.51 1013.24 1013.80 1014.16 1014.42 1014.48 1014.72 1014.78 1015.29 1015.44 1015.60 1015.83 1016.20 1016.41 1016.42 1016.44 1016.31 1016.29 1016.15
1011.29 1011.94 1012.45 1013.14 1013.57 1013.84 1014.34 1014.73 1015.06 1015.07 1015.41 1015.76 1016.11 1016.41 1016.84 1017.17 1017.22 1017.15 1017.11 1016.89 1016.62 1016.46
1012.05 1012.49 1012.92 1013.24 1013.64 1014.01 1014.48 1014.89 1015.25 1015.70 1016.51 1016.84 1017.33 1017.53 1017.76 1017.90 1017.85 1017.69 1017.47 1017.27 1017.04 1016.72
1012.34 1012.67 1012.90 1013.28 1013.90 1014.52 1015.07 1015.44 1016.24 1016.85 1017.52 1017.93 1018.34 1018.67 1018.64 1018.45 1018.38 1018.24 1017.84 1017.48 1017.14 1016.80
1012.46 1013.08 1013.52 1014.05 1014.84 1015.46 1015.88 1016.46 1017.09 1017.86 1018.57 1018.87 1019.00 1019.46 1019.51 1019.28 1018.97 1018.58 1018.08 1017.54 1017.10 1016.90
1013.35 1014.09 1014.71 1015.14 1015.70 1016.11 1016.70 1017.25 1017.89 1018.79 1019.46 1019.85 1020.10 1020.15 1019.90 1019.62 1019.13 1018.61 1018.22 1017.84 1017.49 1017.25
1014.52 1015.10 1015.64 1016.10 1016.44 1017.01 1017.60 1017.87 1018.62 1019.53 1020.09 1020.47 1020.54 1020.19 1019.93 1019.64 1019.16 1018.78 1018.51 1018.18 1017.90 1017.48
1015.32 1016.01 1016.61 1016.92 1017.38 1017.69 1017.99 1018.52 1019.10 1019.78 1020.30 1020.62 1020.85 1020.62 1020.38 1019.93 1019.56 1019.31 1019.06 1018.84 1018.64 1018.37
1016.18 1016.91 1017.40 1017.70 1018.18 1018.30 1018.63 1019.30 1019.36 1019.98 1020.42 1020.95 1021.39 1021.16 1020.92 1020.55 1020.19 1019.94 1019.62 1019.22 1018.92 1018.66
1016.97 1017.50 1018.02 1018.41 1018.79 1018.80 1019.05 1019.37 1019.78 1020.14 1020.67 1021.56 1021.89 1021.68 1021.38 1021.17 1020.90 1020.53 1020.06 1019.60 1019.12 1018.75
1017.60 1018.12 1018.68 1019.05 1019.12 1019.25 1019.36 1019.68 1020.07 1020.61 1021.38 1022.03 1022.12 1022.03 1021.67 1021.46 1021.12 1020.81 1020.39 1019.89 1019.30 1018.74
Wind_Speed
14 8 8 8 6 5 4 4 4 6 6 6 6 5 4 2 1 3 2 1 2 2
13 12 10 10 8 6 5 5 5 6 6 6 6 7 6 5 3 3 2 3 4 2
12 12 11 9 9 7 5 6 7 7 6 6 6 7 6 4 4 5 4 3 5 3
11 11 11 10 8 7 7 7 6 6 7 7 7 6 5 7 7 7 6 6 5 5
12 11 11 10 8 8 7 6 7 7 6 8 11 13 11 9 8 8 8 7 9 7
11 11 10 8 8 8 8 7 7 9 13 12 12 11 10 9 9 9 7 7 7 7
11 10 10 9 8 7 7 8 13 13 13 12 11 11 10 10 9 8 7 7 6 5
9 10 11 11 13 13 12 12 13 12 11 11 11 9 9 7 7 6 7 7 7 4
12 14 14 13 11 12 11 10 12 12 11 10 8 13 16 11 5 6 6 5 6 5
14 14 12 11 10 8 7 9 12 10 9 9 6 16 17 18 5 6 7 8 7 6
14 13 11 10 8 7 8 10 8 8 9 7 7 15 16 16 8 7 7 7 5 5
14 12 10 8 7 6 9 7 8 7 7 8 7 12 14 10 7 8 9 8 4 3
12 11 9 7 7 5 5 6 5 6 7 12 5 9 10 8 4 6 6 7 6 7
11 8 6 5 5 4 4 5 6 6 8 7 5 5 12 11 4 4 4 4 6 6
Wind_Direction
129 132 128 120 114 96 90 101 110 111 116 112 121 112 84 57 124 155 167 349 301 273
118 112 112 104 99 99 109 126 111 105 96 86 84 76 59 44 22 80 58 347 357 -0
112 115 109 107 110 121 121 102 101 90 87 83 83 79 55 37 9 28 14 23 27 17
102 98 98 101 106 112 105 106 103 93 77 70 74 75 53 37 41 40 26 14 357 354
106 108 105 106 104 101 99 85 95 87 79 55 52 59 55 47 30 27 14 10 357 337
109 110 112 106 100 97 96 91 72 62 70 59 48 48 42 37 25 13 358 345 340 324
109 107 103 97 91 91 81 68 72 72 69 62 53 39 27 20 8 350 338 324 314 308
90 89 87 70 68 70 71 68 80 78 71 62 52 30 13 2 342 326 322 321 315 25
89 76 78 73 74 74 73 78 81 78 72 63 49 22 15 7 333 325 325 349 354 3
85 82 79 80 78 76 82 80 89 91 82 67 41 27 13 1 339 349 15 7 358 11
89 86 80 74 70 72 80 87 88 90 92 78 46 32 13 3 5 11 1 7 8 34
91 91 83 75 72 77 90 94 94 97 101 80 44 30 21 13 7 3 352 344 23 16
89 86 84 80 77 79 84 100 117 105 91 99 72 29 30 22 351 360 352 338 338 318
98 95 92 89 63 62 108 105 99 107 82 98 87 15 17 8 344 339 331 326 321 314